Imperial, NE

8:42 AM MDT on April 24, 2017 (GMT -0600)
Imperial Municipal

Weather History for KIML - November, 2014

Change the Weather History Date:

Friday, November 14, 2014

  Actual Average Record
Temperature  
Mean Temperature 25 °F 38 °F  
Max Temperature 34 °F 52 °F 78 °F (1905)
Min Temperature 16 °F 25 °F -7 °F (1940)
Degree Days  
Heating Degree Days 40 27  
Month to date heating degree days 389 333  
Cooling Degree Days 0 0  
Month to date cooling degree days 0 0  
Year to date cooling degree days 955 963  
Moisture  
Dew Point 6 °F    
Average Humidity 47    
Maximum Humidity 59    
Minimum Humidity 35    
Precipitation  
Precipitation 0.00 in 0.02 in 0.56 in (1993)
Sea Level Pressure  
Sea Level Pressure 30.16 in    
Wind  
Wind Speed 16 mph (SSE)    
Max Wind Speed 24 mph    
Max Gust Speed 29 mph    
Visibility 10 miles    
Events      
T = Trace of Precipitation, MM = Missing Value Source: NWS Daily Summary

Daily Weather History Graph

Daily Weather History Graph

Search for Another Location

Airport or City:

Trip Planner

Search our weather history database for the weather conditions in past years. The results will help you decide how hot, cold, wet, or windy it might be!

Date:

Astronomy

Nov. 14, 2014 Rise Set
Actual Time 6:31 AM MST 4:29 PM MST
Civil Twilight 6:02 AM MST 4:58 PM MST
Nautical Twilight 5:29 AM MST 5:31 PM MST
Astronomical Twilight 4:57 AM MST 6:04 PM MST
Moon 11:45 PM MST (11/14) 12:24 PM MST (11/14)
Length of Visible Light 10h 56m
Length of Day
9h 58m
Waning Gibbous, 49% of the Moon is Illuminated
Nov 14
Waning Gibbous
Nov 22
New
Nov 29
First Quarter
Dec 6
Full
Dec 14
Last Quarter

Hourly Weather History & Observations

Time (MST) Temp. Windchill Dew Point Humidity Pressure Visibility Wind Dir Wind Speed Gust Speed Precip Events Conditions
12:53 AM 18.0 °F 5.4 °F -0.0 °F 45% 30.33 in 10.0 mi South 11.5 mph - N/A   Overcast
1:53 AM 18.0 °F 3.1 °F -0.0 °F 45% 30.32 in 10.0 mi South 16.1 mph 21.9 mph N/A   Overcast
2:53 AM 17.6 °F 4.3 °F 1.4 °F 49% 30.17 in 10.0 mi South 12.7 mph - N/A   Overcast
3:53 AM 17.1 °F 3.0 °F 1.0 °F 50% 30.30 in 10.0 mi South 13.8 mph - N/A   Overcast
4:53 AM 17.1 °F 2.5 °F 1.0 °F 50% 30.30 in 10.0 mi South 15.0 mph - N/A   Overcast
5:53 AM 16.0 °F 0.6 °F 1.9 °F 54% 30.29 in 10.0 mi SSE 16.1 mph - N/A   Overcast
6:53 AM 17.1 °F 1.5 °F 3.0 °F 54% 30.27 in 10.0 mi South 17.3 mph 26.5 mph N/A   Overcast
7:53 AM 18.0 °F 4.2 °F 3.0 °F 52% 30.30 in 10.0 mi South 13.8 mph - N/A   Overcast
8:53 AM 21.0 °F 6.6 °F 3.9 °F 48% 30.26 in 10.0 mi South 17.3 mph - N/A   Overcast
9:53 AM 24.1 °F 11.5 °F 5.0 °F 44% 30.23 in 10.0 mi South 15.0 mph 27.6 mph N/A   Overcast
10:53 AM 28.0 °F 13.9 °F 7.0 °F 41% 30.18 in 10.0 mi South 23.0 mph 29.9 mph N/A   Overcast
11:53 AM 30.0 °F 18.3 °F 8.1 °F 40% 30.14 in 10.0 mi South 17.3 mph 27.6 mph N/A   Clear
12:53 PM 30.2 °F 18.1 °F 8.6 °F 40% 29.99 in 10.0 mi South 18.4 mph 28.8 mph N/A   Overcast
1:53 PM 33.8 °F 23.2 °F 8.6 °F 35% 29.98 in 10.0 mi South 17.3 mph - N/A   Partly Cloudy
2:53 PM 32.0 °F 21.2 °F 10.9 °F 42% 30.10 in 10.0 mi South 16.1 mph 25.3 mph N/A   Scattered Clouds
3:53 PM 32.0 °F 20.8 °F 12.0 °F 44% 30.09 in 10.0 mi SSE 17.3 mph - N/A   Overcast
4:53 PM 28.9 °F 18.6 °F 10.9 °F 47% 30.09 in 10.0 mi SE 12.7 mph - N/A   Clear
5:53 PM 27.0 °F 15.2 °F 10.0 °F 49% 30.10 in 10.0 mi SE 15.0 mph - N/A   Clear
6:53 PM 26.1 °F 14.0 °F 10.9 °F 53% 30.09 in 10.0 mi SE 15.0 mph - N/A   Clear
7:53 PM 24.1 °F 11.5 °F 10.0 °F 55% 30.09 in 10.0 mi SE 15.0 mph - N/A   Clear
8:53 PM 23.0 °F 9.2 °F 10.0 °F 58% 30.08 in 10.0 mi SSE 17.3 mph - N/A   Partly Cloudy
9:53 PM 21.9 °F 8.2 °F 9.0 °F 58% 30.07 in 10.0 mi SE 16.1 mph - N/A   Clear
10:53 PM 21.9 °F 9.8 °F 9.0 °F 58% 30.04 in 10.0 mi SE 12.7 mph - N/A   Clear
11:53 PM 21.9 °F 6.2 °F 9.0 °F 58% 29.99 in 10.0 mi SE 21.9 mph - N/A   Mostly Cloudy